#timestamp,LO_Frequency,Hit,StdDev 
1649721615.6,286047000.4,N
1649721635.5,286047002.4,N
1649721655.3,286047000.1,N
1649721675.1,286047000.9,N
1649721695.9,286047002.1,N
1649721715.7,286047001.3,N
1649721735.6,286047000.0,N
1649721755.4,286047000.5,N
1649721775.2,286047000.6,N
1649721795.1,286046999.9,N
1649721796.0,286046999.9,N
1649721815.8,286047002.7,N
1649721835.6,286047000.8,N
1649721855.5,286046999.6,N
1649721875.3,286046998.4,N
1649721895.2,286046999.5,N
1649721915.9,286046996.7,N
1649721935.7,286046999.2,N
1649721955.6,286046998.2,N
1649721975.4,286047000.4,N
1649721995.2,286047002.8,N
1649722015.1,286047002.5,N
1649722016.0,286047002.5,N
1649722035.8,286046999.8,N
1649722055.7,286047000.5,N
1649722075.5,286047000.8,N
1649722095.3,286047002.8,N
1649722115.2,286047000.9,N
1649722135.9,286047002.2,N
1649722155.7,286047001.8,N
1649722175.6,286047001.9,N
1649722195.4,286047002.4,N
1649722215.2,286046998.2,N
1649722235.1,286047001.2,N
1649722236.0,286047001.2,N
1649722255.8,286047002.4,N
1649722275.7,286047002.3,N
1649722295.5,286047001.5,N
1649722315.3,286047003.4,N
1649722335.2,286047001.3,N
1649722355.0,286046999.7,N
1649722355.9,286046999.7,N
1649722375.7,286047000.4,N
1649722395.6,286047002.7,N
1649722415.4,286047002.0,N
1649722435.3,286047004.3,N
1649722455.1,286047004.0,N
1649722456.0,286047004.0,N
1649722475.8,286047000.1,N
1649722495.7,286047000.7,N
1649722515.5,286046998.3,N
1649722535.3,286047000.4,N
1649722555.2,286046998.1,N
1649722575.0,286046999.8,N
1649722575.9,286046999.8,N
1649722595.8,286047002.7,N
1649722615.6,286047001.6,N
1649722635.4,286047001.5,N
1649722655.3,286047002.1,N
1649722675.1,286047004.0,N
1649722695.8,286047001.3,N
1649722715.7,286047004.0,N
1649722735.5,286047001.7,N
1649722755.4,286047002.0,N
1649722775.2,286047000.3,N
1649722795.0,286047002.2,N
1649722795.9,286047002.2,N
1649722815.8,286047000.3,N
1649722835.6,286046999.8,N
1649722855.4,286046999.8,N
1649722875.3,286047002.4,N
1649722895.1,286047001.9,N
1649722915.9,286047004.3,N
1649722935.7,286047004.2,N
1649722955.5,286047001.5,N
1649722975.4,286047001.3,N
1649722995.2,286047004.2,N
1649723015.0,286047001.7,N
1649723015.9,286047001.7,N
1649723035.8,286047004.4,N
1649723055.6,286047004.0,N
1649723075.5,286047003.5,N
1649723095.3,286047004.1,N
1649723115.1,286047001.7,N
1649723135.9,286047003.9,N
1649723155.7,286047003.7,N
1649723175.5,286047005.8,Y
1649723195.4,286047004.2,P
1649723215.2,286047001.8,N
1649723235.1,286047004.3,P
1649723236.0,286047004.3,Y
1649723255.8,286046998.5,P
1649723275.6,286046998.3,N
1649723295.5,286046996.7,N
1649723315.3,286046999.6,N
1649723335.1,286046997.6,N
1649723355.9,286046996.1,N
1649723375.7,286046993.4,Y
1649723395.6,286046997.0,P
1649723415.4,286046998.4,N
1649723435.2,286046998.4,N
1649723455.1,286047000.2,N
1649723456.0,286047000.2,N
1649723475.8,286046998.1,N
1649723495.7,286046998.3,N
1649723515.5,286047000.7,N
1649723535.3,286047000.6,N
1649723555.2,286047000.6,N
1649723575.9,286046999.4,N
1649723595.7,286046999.1,N
1649723615.6,286046996.6,Y
1649723635.4,286046999.2,P
1649723655.3,286047001.2,P
1649723675.1,286047001.2,N
1649723676.0,286047001.2,N
1649723695.8,286046999.6,N
1649723715.7,286046997.0,Y
1649723735.5,286046996.7,P
1649723755.3,286046997.4,N
1649723775.2,286046995.3,P
1649723795.0,286046996.8,N
1649723795.9,286046996.8,N
1649723815.8,286046999.5,N
1649723835.6,286046994.9,Y
1649723855.4,286046996.6,P
1649723875.3,286046997.0,P
1649723895.1,286046994.9,P
1649723915.8,286046997.4,N
1649723935.7,286046999.3,N
1649723955.5,286046998.8,N
1649724005.4,286046998.3,E
1649724015.3,286047000.8,N
1649724035.1,286047000.3,P
1649724055.9,286046999.8,N
1649724075.7,286047000.5,N
1649724095.6,286047000.0,N
1649724115.4,286047000.8,N
1649724135.2,286046999.7,N
1649724155.1,286046998.6,Y
1649724156.0,286046998.6,P
1649724175.8,286046997.7,N
1649724195.6,286046995.5,P
1649724215.5,286046995.9,N
1649724235.3,286046997.2,N
1649724255.2,286046997.0,N
1649724275.9,286046995.3,Y
1649724295.7,286046998.4,P
1649724315.6,286047000.2,N
1649724335.4,286047000.1,N
1649724355.2,286047000.4,N
1649724375.1,286047000.6,N
1649724376.0,286047000.6,N
1649724395.8,286046998.5,N
1649724445.7,286047000.7,E
1649724455.6,286046999.2,N
1649724475.4,286046997.8,P
1649724495.3,286046996.5,P
1649724515.1,286046997.0,N
1649724535.9,286046997.9,N
1649724555.7,286046997.5,N
1649724575.5,286046997.2,Y
1649724595.4,286047002.4,P
1649724615.2,286047004.3,N
1649724635.0,286047002.5,N
1649724636.0,286047002.5,N
1649724655.8,286047001.9,N
1649724675.6,286047001.5,N
1649724695.5,286047004.4,N
1649724715.3,286047004.4,N
1649724735.1,286047001.6,N
1649724755.9,286047002.0,N
1649724775.7,286047001.5,N
1649724795.5,286047001.9,N
1649724815.4,286047001.3,N
1649724835.2,286047004.2,N
1649724855.1,286047003.8,N
1649724856.0,286047003.8,N
1649724875.8,286047001.5,N
1649724895.6,286047001.3,N
1649724915.5,286047001.6,N
1649724935.3,286047002.5,N
1649724955.1,286046999.7,N
1649724975.9,286047002.6,N
1649725025.7,286047001.7,E
1649725035.7,286047000.3,N
1649725055.5,286046998.8,P
1649725075.3,286046998.7,N
1649725095.2,286047001.0,N
1649725115.0,286047002.7,N
1649725115.9,286047002.7,N
1649725135.7,286047001.5,N
1649725155.6,286047001.4,N
1649725175.4,286046999.7,N
1649725195.3,286047002.4,N
